Dewpoint
51 52 53 54 53 54 55 55 56 58 59 58 58 57 57 57 56 55 54 54 53 51 51 50 50 46 39 22 28 30 32 32 24 15 12 7 3 3 3 3 3 3 2 4 7 3 -2
48 49 51 51 51 52 52 52 52 52 53 57 58 57 57 57 57 56 55 55 53 52 51 51 50 46 27 36 28 23 28 21 17 12 8 6 7 7 3 3 1 3 6 1 2 1 -0
47 47 47 48 50 50 50 50 50 50 51 51 52 55 57 57 57 56 56 55 54 53 52 53 49 43 30 37 23 23 22 16 13 9 8 7 9 7 8 4 10 10 7 6 2 1 -1
47 46 46 45 47 48 47 48 47 48 50 50 50 51 52 55 57 56 56 55 54 53 53 52 51 39 34 27 28 28 26 26 25 17 10 9 10 9 9 9 8 7 8 4 3 0 -1
46 47 46 46 46 45 46 46 46 46 47 48 49 49 50 51 53 56 56 55 54 53 53 52 35 31 38 35 33 31 28 26 22 13 11 10 8 8 8 7 6 7 1 3 3 1 0
45 46 46 46 46 46 46 46 45 46 48 49 49 49 51 51 51 55 55 54 53 52 45 40 29 37 38 39 32 25 27 26 17 12 10 10 9 6 9 7 3 5 4 2 1 1 1
45 45 45 45 46 45 45 46 46 47 47 48 48 48 50 50 51 54 53 50 47 42 39 43 38 40 38 33 34 26 23 17 11 10 8 11 8 6 4 8 9 8 7 6 6 -0 0
44 44 45 46 45 45 45 45 47 47 47 47 47 48 48 50 52 53 50 48 45 40 41 42 40 34 35 34 34 39 19 14 11 12 10 9 8 10 8 6 7 7 7 7 7 -1 -1
47 46 46 46 46 46 46 46 46 47 47 47 47 47 48 49 51 50 48 46 40 41 40 41 42 41 40 39 39 39 33 11 9 10 9 7 8 12 12 11 10 10 8 4 -1 -2 -3
47 47 46 46 45 46 48 47 47 47 47 47 47 46 49 50 47 46 45 43 41 45 31 31 37 38 40 39 38 41 38 31 10 10 10 9 9 8 8 10 12 10 10 4 -1 -3 -4
46 47 47 47 47 47 47 48 48 46 47 47 48 47 50 48 45 44 44 43 45 44 -1 17 33 38 38 37 34 36 39 27 25 9 11 11 10 10 8 9 12 11 7 3 3 -0 -1
46 46 46 46 47 46 47 46 47 47 48 47 48 47 49 46 46 45 43 45 45 29 5 17 35 36 36 36 35 30 36 24 25 13 12 16 13 13 12 11 12 9 4 6 4 1 -2
45 45 46 45 45 45 47 46 46 47 47 47 48 48 49 45 39 43 45 44 32 21 21 14 21 32 35 34 34 30 30 27 22 16 16 11 11 12 12 8 6 4 2 2 -1 -3 -1
44 43 44 44 45 44 44 45 45 45 46 46 47 47 48 46 45 43 43 36 22 21 19 22 23 20 24 33 33 32 28 27 23 16 17 18 17 15 14 12 6 3 5 5 1 1 3
42 43 43 43 44 44 44 44 44 45 45 46 46 45 44 46 45 43 38 27 21 22 26 24 21 19 15 22 26 30 32 27 28 21 19 15 15 16 15 11 9 5 3 9 8 15 10
39 40 42 42 43 44 44 42 43 43 44 44 41 41 40 44 45 42 33 22 23 27 23 29 25 23 19 12 23 26 28 32 31 27 21 17 14 13 11 10 10 9 10 5 11 1 1
39 40 41 42 42 43 44 43 43 43 41 42 39 34 36 45 43 36 25 25 26 24 25 27 27 26 28 27 26 25 26 26 25 30 26 21 18 14 9 9 7 10 8 13 13 11 4
39 39 41 42 41 41 42 42 41 42 40 40 35 28 40 44 31 31 27 26 25 24 26 26 28 30 29 29 29 27 25 26 25 25 22 23 23 18 9 12 12 9 11 15 8 10 13
38 39 41 42 42 40 41 42 42 41 40 38 32 30 42 40 24 26 27 29 28 23 23 25 23 26 31 30 26 29 29 31 29 24 23 27 24 25 19 16 12 7 9 13 20 21 13
39 38 39 39 39 39 40 40 41 42 41 37 32 25 29 36 33 25 25 26 26 28 26 24 24 25 22 22 30 28 28 31 33 30 31 26 22 20 18 16 15 9 9 11 19 11 9
38 38 38 39 38 39 39 39 40 40 41 37 32 27 25 23 27 30 25 22 25 25 26 25 26 23 24 22 20 18 26 30 29 33 32 29 24 23 19 18 18 19 20 19 19 18 21
36 36 36 37 37 37 38 38 39 39 40 35 28 27 29 25 26 23 28 24 22 25 25 24 23 22 24 24 27 26 26 30 29 31 31 33 28 29 23 23 23 22 23 26 26 19 20
33 33 34 35 36 36 36 37 38 39 39 33 35 33 29 22 22 25 24 28 24 24 24 25 25 24 23 23 28 30 34 33 33 32 32 32 30 29 24 25 27 25 26 27 26 26 22
35 33 33 32 32 33 35 37 38 38 39 35 34 34 28 20 23 21 20 22 29 27 25 25 26 26 26 31 35 34 34 33 33 33 33 30 30 29 25 25 19 22 22 25 26 27 27
35 35 33 32 32 33 35 36 37 39 39 37 34 30 27 22 21 20 23 21 21 24 26 29 25 26 31 31 25 23 23 25 25 30 31 30 30 26 23 21 22 20 17 19 23 22 27
33 32 32 33 34 35 35 36 37 38 38 38 35 33 29 24 21 20 18 20 20 22 24 31 30 31 31 27 24 19 17 22 22 28 26 27 28 26 23 20 15 17 19 19 20 14 27
33 34 35 35 34 34 35 36 36 37 38 37 36 37 31 26 26 22 20 19 22 22 22 27 29 29 30 24 20 21 21 25 22 23 24 26 27 24 23 21 21 21 20 21 14 16 30
35 34 34 33 34 36 39 39 39 38 37 37 35 39 35 30 27 26 24 22 24 22 19 24 25 26 29 22 22 22 25 24 24 25 25 23 23 23 24 21 18 23 22 17 24 30 30
33 33 33 38 40 40 41 43 41 39 39 38 34 37 38 33 31 30 28 26 24 24 27 27 21 23 26 23 27 28 26 25 22 20 24 22 23 22 23 21 26 30 26 30 30 29 29
Wind_Speed
2 3 2 2 3 3 4 9 7 3 9 10 11 11 10 11 13 11 11 11 12 13 14 16 21 25 7 5 7 5 3 2 5 4 4 4 5 3 1 3 6 5 3 4 5 8 5
5 3 0 1 2 4 5 6 6 7 7 4 8 10 9 11 13 12 11 11 12 11 14 13 16 18 4 8 2 5 2 4 5 2 4 2 2 5 4 2 2 5 5 5 2 7 5
6 6 5 6 2 1 2 3 5 6 6 7 7 6 8 9 11 13 12 11 11 11 13 12 11 7 2 16 3 3 3 4 2 2 3 1 1 3 4 6 4 5 8 8 9 11 9
7 6 4 6 3 4 2 1 4 5 6 6 6 6 7 7 10 12 11 12 11 11 13 8 9 1 10 8 5 9 5 12 15 8 5 2 2 1 2 4 7 4 3 7 1 6 6
7 8 7 6 3 3 4 4 2 2 5 6 7 8 8 8 8 9 9 12 11 10 14 10 0 1 12 11 8 8 13 10 6 4 3 2 2 1 1 1 3 1 9 6 10 7 4
11 10 10 9 7 5 5 3 2 3 4 5 5 7 6 7 8 7 5 6 10 10 2 2 2 4 7 4 6 3 8 11 4 2 1 1 2 3 1 6 16 6 7 4 8 4 8
16 15 13 12 11 8 7 5 4 4 2 4 7 8 6 7 7 2 1 6 7 7 3 11 6 6 5 6 6 5 1 8 6 5 7 2 6 16 19 14 5 2 6 11 15 12 6
18 16 15 16 13 11 10 9 6 4 3 2 5 7 10 7 5 6 4 3 4 1 12 14 21 16 22 2 5 18 1 6 8 17 7 3 18 20 10 9 11 12 16 19 13 9 7
18 18 16 15 15 15 14 12 9 6 4 2 4 7 10 4 5 4 3 4 3 2 9 10 15 14 15 13 15 23 8 4 8 16 16 20 15 10 7 15 16 14 15 13 9 2 0
14 15 13 13 12 12 14 14 12 9 6 4 1 4 2 8 2 2 4 3 3 3 6 8 8 10 14 13 11 22 19 16 10 21 15 14 20 23 25 18 12 20 12 13 7 6 11
15 16 16 15 14 14 13 11 12 10 7 6 3 2 7 3 4 4 3 4 2 1 6 2 4 1 6 13 1 9 22 14 29 15 12 13 9 13 22 23 11 13 11 11 5 6 2
17 17 19 18 16 14 13 11 10 10 10 8 5 4 11 2 1 3 2 8 1 5 15 6 3 5 6 11 4 2 10 7 11 16 15 14 5 6 7 3 15 8 6 5 4 2 17
19 20 19 21 19 17 15 13 12 11 11 10 7 6 8 6 3 5 7 6 6 10 3 5 6 4 11 7 6 6 10 19 17 17 29 12 24 11 7 6 4 12 12 8 6 8 16
18 18 17 19 19 17 16 15 13 11 11 10 9 7 6 6 1 8 3 3 7 12 18 1 3 14 4 5 8 9 8 13 24 4 5 19 14 22 16 28 12 16 19 13 10 9 6
18 17 18 18 17 18 18 17 17 14 13 11 8 2 3 7 5 4 4 19 15 8 3 2 8 10 14 8 6 8 12 14 13 23 15 10 12 7 11 9 24 12 22 11 8 2 4
17 17 20 21 20 18 18 19 19 16 13 11 5 4 5 10 11 6 10 20 15 7 6 5 4 10 10 19 10 7 13 6 17 18 13 7 12 4 2 7 3 16 16 8 5 11 14
19 19 21 24 23 21 19 18 18 17 16 11 6 4 5 19 10 9 18 17 23 18 4 4 7 7 6 2 6 12 8 8 8 10 25 23 9 5 3 9 17 8 10 4 9 8 9
25 21 20 26 24 22 20 19 17 16 18 11 7 9 6 18 16 8 25 15 13 16 16 13 6 9 8 2 6 7 5 12 15 5 9 10 1 25 11 4 7 7 13 13 14 11 11
23 20 17 15 16 19 20 20 19 18 17 9 5 7 5 18 20 23 18 20 17 15 22 7 15 8 2 6 9 10 14 8 8 14 7 16 11 16 6 8 4 4 5 6 3 2 13
22 21 21 23 26 27 23 21 20 19 18 12 6 8 6 14 13 22 25 26 28 14 23 15 16 15 19 24 16 10 9 5 5 8 8 6 8 21 31 6 6 8 8 7 6 10 16
22 20 21 21 21 22 23 23 22 22 21 12 9 9 10 14 25 21 26 21 23 22 19 19 8 29 19 11 19 27 21 17 8 6 6 6 7 10 8 8 9 10 11 11 17 25 18
19 20 20 19 20 21 21 23 24 25 25 17 11 11 3 8 7 34 21 30 33 26 17 28 25 27 18 20 25 4 20 10 10 4 3 7 9 5 14 7 10 11 15 16 17 22 20
20 18 19 19 21 22 24 25 25 27 28 11 9 3 3 14 21 11 24 22 36 30 24 29 23 23 19 37 9 18 12 9 9 6 7 5 8 10 16 11 6 9 33 20 18 17 24
20 20 21 21 22 24 26 26 27 29 32 12 5 6 10 22 12 26 24 19 21 29 31 13 20 15 33 6 3 3 2 5 10 18 17 10 10 8 3 3 15 12 4 22 31 35 28
22 22 24 25 26 25 27 27 28 29 34 16 11 13 12 17 20 21 9 16 19 24 25 29 29 18 6 4 7 8 12 9 18 14 18 19 12 5 6 11 10 14 5 7 14 16 20
23 25 27 28 29 27 27 28 30 31 32 28 22 18 13 20 26 17 24 23 18 16 16 16 17 9 6 5 6 13 9 7 5 2 9 13 15 13 6 6 9 3 5 5 10 19 6
24 26 27 28 29 31 33 35 35 34 34 30 14 23 22 21 14 17 23 20 10 13 13 6 6 11 13 12 14 11 14 8 8 9 7 7 5 18 11 9 9 10 11 1 12 7 8
23 26 27 30 34 37 40 40 40 39 40 36 28 22 23 10 15 18 19 21 8 19 22 5 5 7 5 17 13 11 9 14 8 9 10 14 14 9 5 8 14 2 1 6 8 10 16
23 27 35 37 40 40 31 26 48 44 41 40 21 26 24 13 4 17 20 30 20 23 11 12 9 9 16 9 9 4 9 1 9 12 7 11 10 12 14 8 3 3 2 10 11 21 12
Wind_Direction
67 20 41 37 33 51 69 57 45 287 262 261 263 268 277 283 291 299 307 318 327 336 339 348 340 338 348 9 266 317 214 280 314 332 16 14 14 351 326 301 318 216 327 344 297 199 228
227 250 310 9 67 61 50 67 66 43 31 347 269 267 271 281 287 293 299 305 315 327 326 344 346 335 333 307 243 340 197 299 270 326 340 353 13 300 285 273 244 301 304 267 275 232 254
217 235 240 242 252 102 72 42 41 29 23 7 12 338 284 275 282 293 300 303 308 317 318 333 347 341 264 260 154 22 338 274 281 280 311 247 270 11 346 313 334 288 307 301 223 230 240
208 203 224 221 208 216 252 319 349 10 356 349 354 348 337 306 275 278 289 299 301 306 300 311 334 319 262 261 290 275 244 271 270 249 251 271 74 262 171 312 341 331 310 282 199 192 246
216 200 203 200 213 236 247 279 228 357 327 315 321 332 321 315 299 268 286 301 295 299 288 290 26 44 271 304 275 266 191 205 247 274 226 87 36 244 1 242 319 357 261 269 311 230 192
235 225 218 209 206 222 212 214 283 307 321 330 317 318 303 307 312 285 291 285 299 311 271 163 292 301 256 266 305 282 179 181 178 160 351 82 32 249 142 164 239 218 232 242 259 296 227
232 232 230 220 214 220 233 227 243 258 299 339 338 331 309 321 328 279 105 306 292 272 205 211 200 236 282 342 336 332 266 136 121 124 202 303 251 235 229 216 197 240 258 279 277 292 230
243 237 236 228 217 221 226 234 217 243 257 326 341 341 333 335 338 159 126 210 258 323 297 248 252 251 276 289 300 277 326 182 175 214 155 225 260 261 240 247 247 254 267 274 283 269 225
231 234 235 231 225 219 223 224 222 224 217 249 344 338 328 41 124 136 184 226 152 289 278 264 222 231 230 198 226 241 185 206 210 210 210 215 218 36 236 256 257 250 242 260 227 258 339
228 223 215 222 228 232 232 227 218 212 223 237 278 337 171 130 168 163 238 209 201 344 289 270 229 252 201 203 255 214 210 198 216 220 225 238 234 239 259 259 246 260 232 235 200 181 235
229 226 225 221 225 229 229 233 232 213 224 237 228 302 159 171 155 197 281 184 101 31 277 234 219 177 175 181 177 218 200 195 219 192 184 224 215 219 231 240 221 249 209 193 168 175 173
232 234 233 218 214 216 219 227 226 221 222 228 221 233 166 149 271 269 187 127 122 118 239 295 171 191 134 214 250 68 170 187 230 211 226 229 225 182 204 212 216 151 121 68 60 143 256
234 236 229 225 216 215 212 214 213 212 214 224 220 217 188 160 221 158 148 126 156 201 268 240 221 173 208 199 225 213 186 189 191 198 227 230 242 247 222 229 103 169 159 227 252 214 246
240 238 234 223 219 218 219 215 214 216 217 224 216 204 194 197 229 151 110 158 193 226 223 4 58 344 318 222 239 215 203 208 213 167 157 215 255 218 213 217 187 187 188 198 225 230 264
231 229 231 225 216 211 208 209 213 212 221 218 222 148 174 218 163 132 184 203 215 219 223 262 306 286 268 276 238 259 226 230 213 207 207 202 249 243 226 192 182 196 210 197 231 219 252
231 235 239 231 214 214 220 220 214 207 205 205 159 180 206 188 156 151 205 214 234 227 311 16 227 218 236 233 241 218 227 251 227 216 205 224 261 228 223 149 83 196 154 173 200 229 242
238 235 238 228 219 209 214 223 219 211 207 174 152 202 229 160 135 198 206 224 237 255 294 263 244 258 259 294 255 249 235 296 287 226 205 224 235 244 150 215 189 158 185 172 186 189 219
245 246 242 228 220 211 207 212 211 214 217 166 163 214 176 153 187 198 214 216 233 250 240 252 296 244 251 323 272 257 278 239 348 270 178 208 228 248 221 254 216 202 200 180 203 204 226
239 240 230 214 230 220 216 208 205 209 211 145 203 211 191 178 200 212 224 232 235 241 230 232 233 223 276 259 268 252 264 250 359 12 316 209 211 232 254 270 322 201 190 213 149 81 221
230 231 231 224 215 222 219 214 210 210 205 171 169 199 208 223 220 211 213 219 227 236 244 230 249 240 243 255 244 261 269 298 320 272 3 360 201 209 227 222 156 185 182 171 137 232 258
229 228 230 228 228 226 221 219 214 211 207 174 194 218 192 198 225 217 215 223 222 229 225 211 249 231 232 240 254 248 260 261 267 271 233 53 322 314 255 202 187 207 232 219 224 245 248
226 227 228 229 230 231 229 227 221 213 204 198 213 206 173 219 195 223 235 213 222 222 218 222 224 231 234 242 241 341 229 228 239 11 330 195 222 297 291 228 209 216 232 223 224 210 237
229 227 226 228 230 231 229 226 221 214 203 201 201 250 217 228 227 209 223 230 218 224 237 239 221 230 232 239 239 250 249 242 252 212 214 223 208 196 239 230 236 264 237 239 245 234 223
229 231 235 236 236 232 230 230 225 218 210 200 173 170 214 228 205 226 239 244 239 231 242 249 227 227 233 6 131 93 105 266 256 246 223 213 226 187 204 120 243 239 218 219 228 237 232
237 237 240 243 244 240 236 233 228 222 216 206 199 198 214 245 228 234 238 251 252 247 263 257 246 240 4 219 264 268 266 274 258 238 215 210 201 199 200 217 292 295 257 191 198 265 228
241 246 248 250 247 245 243 239 232 224 220 211 210 204 216 232 234 227 236 239 241 242 244 266 267 259 224 237 258 236 237 233 228 253 207 192 212 200 157 216 244 262 282 300 171 260 188
254 256 252 250 246 252 248 241 232 224 220 213 217 198 209 225 226 203 218 231 195 221 252 232 264 223 211 230 231 246 231 191 222 192 175 154 172 208 193 223 273 252 268 163 208 245 146
257 260 259 264 264 256 251 241 231 223 217 211 213 198 203 209 220 207 212 216 189 209 226 211 194 275 233 207 209 226 237 207 186 184 178 178 168 190 177 209 255 245 230 200 162 81 114
268 274 275 266 261 256 250 231 221 219 214 204 217 198 200 219 237 223 220 220 215 225 222 217 222 195 214 189 196 194 220 238 191 212 178 201 184 178 190 213 273 307 201 117 124 123 118